Date String (YYYY-MM-DD hh:mm:ss) UTC,Instrument flags,Ambient pressure (hPa),Sample flow (lpm),Bypass flow (lpm),Sample temperature (°C),Ambient temperature (°C),ASC tube jacket temperature (°C),LED temperature (°C),Box temperature (°C),Sample RH (%),Span deviation,Mass concentration (μg/m³),Mass concentration (μg/m³),Mass concentration (μg/m³)
DateTimeUTC,F1_M11,P_M11,Q1_M11,Q2_M11,T1_M11,T2_M11,T3_M11,T4_M11,T5_M11,U1_M11,ZSPAN_M11,X0_M11,X2_M11,X1_M11
2022-10-17 03:00:00,,0834.0,4.99,0.00,29.2,27.5,00.0,38.1,30.9,14.4,0000.0,0011.61,0007.27,0006.79
2022-10-17 03:01:00,,0834.0,5.02,0.00,29.2,27.5,00.0,38.1,30.9,14.4,0000.5,0011.17,0007.24,0006.79
2022-10-17 03:02:00,,0834.0,4.99,0.00,29.2,27.5,00.0,38.1,30.8,14.4,0000.9,0011.25,0007.27,0006.80
2022-10-17 03:03:00,,0834.0,5.00,0.00,29.1,27.4,00.0,38.1,30.8,14.4,0001.3,0011.55,0007.29,0006.82
2022-10-17 03:04:00,,0834.0,5.00,0.00,29.1,27.4,00.0,38.1,30.8,14.4,0002.0,0011.69,0007.34,0006.83
2022-10-17 03:05:00,,0834.0,4.99,0.00,29.1,27.4,00.0,38.1,30.8,14.4,0001.3,0011.56,0007.34,0006.84
2022-10-17 03:06:00,,0834.0,5.01,0.00,29.1,27.4,00.0,38.1,30.8,14.4,0002.4,0011.59,0007.36,0006.86
2022-10-17 03:07:00,,0834.0,4.99,0.00,29.1,27.4,00.0,38.1,30.8,14.5,0002.0,0011.31,0007.34,0006.86
2022-10-17 03:08:00,,0834.0,5.02,0.00,29.1,27.4,00.0,38.0,30.8,14.5,0002.5,0011.17,0007.34,0006.87
2022-10-17 03:09:00,,0834.0,4.99,0.00,29.1,27.4,00.0,38.1,30.8,14.5,0000.9,0010.83,0007.38,0006.89
2022-10-17 03:10:00,,0834.0,4.99,0.00,29.1,27.4,00.0,38.0,30.8,14.5,0000.3,0010.60,0007.35,0006.88
2022-10-17 03:11:00,,0834.0,5.01,0.00,29.1,27.4,00.0,38.0,30.8,14.5,0000.0,0010.60,0007.34,0006.88
2022-10-17 03:12:00,,0834.0,4.99,0.00,29.1,27.4,00.0,38.0,30.8,14.5,0000.0,0010.63,0007.38,0006.90
2022-10-17 03:13:00,,0834.0,5.00,0.00,29.1,27.4,00.0,38.0,30.8,14.5,0000.0,0010.54,0007.38,0006.91
2022-10-17 03:14:00,,0834.0,5.00,0.00,29.0,27.3,00.0,38.0,30.7,14.5,0000.0,0010.28,0007.37,0006.92
2022-10-17 03:15:00,,0834.0,4.99,0.00,29.0,27.3,00.0,38.0,30.7,14.5,0000.0,0010.08,0007.35,0006.93
2022-10-17 03:16:00,,0834.0,5.01,0.00,29.0,27.3,00.0,38.0,30.7,14.5,0000.0,0010.05,0007.34,0006.94
2022-10-17 03:17:00,,0834.0,4.99,0.00,29.0,27.3,00.0,38.0,30.7,14.5,0000.0,0010.03,0007.32,0006.93
2022-10-17 03:18:00,,0834.0,5.01,0.00,29.0,27.3,00.0,38.0,30.7,14.6,0000.0,0010.07,0007.34,0006.94
2022-10-17 03:19:00,,0834.0,4.99,0.00,29.0,27.3,00.0,37.9,30.7,14.6,0000.0,0010.08,0007.37,0006.95
2022-10-17 03:20:00,,0834.0,5.01,0.00,29.0,27.3,00.0,37.9,30.7,14.6,0000.9,0010.20,0007.37,0006.97
2022-10-17 03:21:00,,0834.0,4.99,0.00,29.0,27.3,00.0,37.9,30.7,14.6,0001.0,0010.72,0007.42,0007.00
2022-10-17 03:22:00,,0834.1,4.99,0.00,29.0,27.2,00.0,37.9,30.6,14.6,0002.0,0011.20,0007.44,0007.01
2022-10-17 03:23:00,,0834.1,5.01,0.00,29.0,27.2,00.0,37.9,30.7,14.6,0001.5,0011.45,0007.44,0007.02
2022-10-17 03:24:00,,0834.1,4.99,0.00,29.0,27.2,00.0,37.9,30.7,14.6,0002.0,0011.49,0007.46,0007.03
2022-10-17 03:25:00,,0834.0,5.01,0.00,29.0,27.2,00.0,37.9,30.7,14.6,0002.2,0011.56,0007.49,0007.05
2022-10-17 03:26:00,,0834.0,4.99,0.00,28.9,27.2,00.0,37.9,30.6,14.6,0001.8,0012.43,0007.52,0007.06
2022-10-17 03:27:00,,0834.1,5.00,0.00,28.9,27.2,00.0,37.9,30.7,14.6,0001.5,0012.81,0007.57,0007.08
2022-10-17 03:28:00,,0834.1,5.00,0.00,28.9,27.2,00.0,37.9,30.6,14.7,0001.6,0012.89,0007.61,0007.10
2022-10-17 03:29:00,,0834.1,4.98,0.00,28.9,27.2,00.0,37.8,30.6,14.7,0001.9,0012.99,0007.65,0007.12
2022-10-17 03:30:00,,0834.1,5.01,0.00,28.9,27.1,00.0,37.8,30.5,14.7,0001.7,0013.02,0007.67,0007.15
2022-10-17 03:31:00,,0834.1,4.99,0.00,28.9,27.1,00.0,37.8,30.5,14.7,0001.6,0013.29,0007.68,0007.15
2022-10-17 03:32:00,,0834.1,5.02,0.00,28.9,27.1,00.0,37.8,30.5,14.8,0001.7,0012.95,0007.67,0007.15
2022-10-17 03:33:00,,0834.1,4.99,0.00,28.8,27.1,00.0,37.8,30.5,14.8,0002.1,0012.44,0007.68,0007.16
2022-10-17 03:34:00,,0834.1,5.01,0.00,28.8,27.1,00.0,37.8,30.5,14.8,0002.0,0012.12,0007.66,0007.16
2022-10-17 03:35:00,,0834.1,5.00,0.00,28.8,27.1,00.0,37.8,30.5,14.8,0001.2,0012.06,0007.64,0007.17
2022-10-17 03:36:00,,0834.1,4.99,0.00,28.8,27.1,00.0,37.8,30.5,14.8,0001.0,0012.01,0007.62,0007.17
2022-10-17 03:37:00,,0834.1,4.99,0.00,28.8,27.1,00.0,37.8,30.5,14.8,0001.5,0011.19,0007.63,0007.17
2022-10-17 03:38:00,,0834.1,5.01,0.00,28.8,27.1,00.0,37.7,30.5,14.9,0001.3,0010.93,0007.62,0007.18
2022-10-17 03:39:00,,0834.1,4.99,0.00,28.8,27.1,00.0,37.7,30.5,14.9,0001.2,0011.76,0007.69,0007.20
2022-10-17 03:40:00,,0834.1,5.02,0.00,28.8,27.1,00.0,37.7,30.5,14.9,0001.6,0011.77,0007.70,0007.20
2022-10-17 03:41:00,,0834.1,4.99,0.00,28.8,27.1,00.0,37.7,30.5,14.9,0001.9,0011.83,0007.68,0007.20
2022-10-17 03:42:00,,0834.1,5.01,0.00,28.8,27.1,00.0,37.7,30.5,14.9,0002.1,0011.40,0007.67,0007.20
2022-10-17 03:43:00,,0834.1,4.99,0.00,28.8,27.1,00.0,37.7,30.5,14.9,0002.0,0011.58,0007.68,0007.21
2022-10-17 03:44:00,,0834.1,5.01,0.00,28.8,27.1,00.0,37.7,30.5,14.9,0001.9,0011.63,0007.71,0007.22
2022-10-17 03:45:00,,0834.1,4.99,0.00,28.7,27.0,00.0,37.7,30.4,14.9,0002.4,0011.61,0007.71,0007.24
2022-10-17 03:46:00,,0834.1,5.01,0.00,28.7,27.0,00.0,37.7,30.4,14.9,0003.0,0011.97,0007.72,0007.25
2022-10-17 03:47:00,,0834.1,5.00,0.00,28.7,27.1,00.0,37.7,30.5,14.9,0002.3,0012.33,0007.74,0007.26
2022-10-17 03:48:00,,0834.1,4.99,0.00,28.7,27.0,00.0,37.7,30.4,14.9,0001.2,0012.81,0007.76,0007.27
2022-10-17 03:49:00,,0834.1,5.00,0.00,28.7,27.0,00.0,37.7,30.4,14.9,0001.0,0012.84,0007.76,0007.27
2022-10-17 03:50:00,,0834.2,5.01,0.00,28.7,27.0,00.0,37.6,30.4,14.9,0000.8,0012.02,0007.71,0007.26
2022-10-17 03:51:00,,0834.1,4.99,0.00,28.7,27.0,00.0,37.6,30.4,15.0,0000.4,0011.97,0007.67,0007.25
2022-10-17 03:52:00,,0834.1,5.01,0.00,28.7,27.0,00.0,37.6,30.3,15.0,-000.1,0012.78,0007.69,0007.25
2022-10-17 03:53:00,,0834.1,4.99,0.00,28.7,27.0,00.0,37.6,30.3,15.0,-000.2,0012.94,0007.70,0007.25
2022-10-17 03:54:00,,0834.1,4.99,0.00,28.7,27.0,00.0,37.6,30.4,15.0,-000.3,0012.87,0007.71,0007.25
2022-10-17 03:55:00,,0834.2,5.02,0.00,28.7,27.0,00.0,37.6,30.4,15.0,0000.0,0012.89,0007.70,0007.23
2022-10-17 03:56:00,,0834.2,4.99,0.00,28.7,27.0,00.0,37.6,30.4,15.0,0000.0,0013.00,0007.73,0007.22
2022-10-17 03:57:00,,0834.1,5.02,0.00,28.7,27.0,00.0,37.6,30.4,15.0,-000.2,0012.80,0007.75,0007.21
2022-10-17 03:58:00,,0834.2,4.99,0.00,28.7,27.0,00.0,37.6,30.4,15.0,0000.0,0012.37,0007.71,0007.20
2022-10-17 03:59:00,,0834.1,5.01,0.00,28.7,27.0,00.0,37.6,30.4,15.0,0000.0,0012.43,0007.72,0007.20
